Tracking 18980 objects as of 23-Feb-2018
HD Live streaming from Space Station
objects crossing your sky now

ARIANE 5 DEB (SYLDA)

Track ARIANE 5 DEB (SYLDA) now!


NORAD ID: 27511
Int'l Code: 2002-040D
Perigee: 612.2 km
Apogee: 35,805.5 km
Inclination: 5.2 °
Period: 639.2 minutes
Semi major axis: 24579 km
RCS: 17.8779 m2 (large)
Launch date: August 28, 2002
Source: France (FR)
Launch site: FRENCH GUIANA (FRGUI)

Note: This is SATELLITE DEBRIS
aabbcc
Your satellite tracking list
Your tracking list is empty




NASA's NSSDC Master Catalog

Two Line Element Set (TLE):
1 27511U 02040D   18052.28375949 -.00000126  00000-0 -18321-2 0  9993
2 27511   5.2311 156.0240 7158969  74.9210 335.8766  2.25285928127333
Source of the keplerian elements: AFSPC